GW5208 Weather Reports


Display with metric or nautical units.
time (UTC)temp
F
wind
direction
speed
MPH
gust
MPH
rain 1hr
in
rain 24hr
in
rain mn
in
humidity
%
barometer
mb
20260510130038 40 125 0.0 2.0 0.00 0.00 0.00 73 1018.2
20260510124528 39 125 0.0 2.0 0.00 0.00 0.00 72 1018.3
20260510123028 38 125 0.0 2.0 0.00 0.00 0.00 70 1018.3
20260510121532 37 125 0.0 1.0 0.00 0.00 0.00 71 1018.4
20260510120026 38 127 0.0 2.0 0.00 0.00 0.00 73 1018.4
20260510114523 38 302 0.0 2.0 0.00 0.00 0.00 73 1018.4
20260510113025 38 302 0.0 2.0 0.00 0.00 0.00 72 1018.5
20260510111528 38 302 0.0 2.0 0.00 0.00 0.00 74 1018.5
20260510110034 38 302 0.0 2.0 0.00 0.00 0.00 70 1018.7
20260510104521 39 302 0.0 2.0 0.00 0.00 0.00 69 1018.7
20260510103025 40 302 0.0 1.0 0.00 0.00 0.00 71 1018.8
20260510101533 40 302 0.0 2.0 0.00 0.00 0.00 76 1018.9
20260510100021 40 302 0.0 2.0 0.00 0.00 0.00 73 1018.9
20260510094523 41 302 0.0 0.0 0.00 0.00 0.00 71 1018.9
20260510093024 42 302 0.0 0.0 0.00 0.00 0.00 69 1018.9
20260510091533 43 302 0.0 0.0 0.00 0.00 0.00 67 1018.9
20260510090030 43 302 0.0 2.0 0.00 0.00 0.00 73 1018.9
20260510084518 43 302 0.0 2.0 0.00 0.00 0.00 65 1018.9
20260510083026 44 302 0.0 2.0 0.00 0.00 0.00 62 1018.9
20260510081508 45 44 0.0 2.0 0.00 0.00 0.00 62 1018.9
20260510080010 46 44 0.0 2.0 0.00 0.00 0.00 64 1019.1
20260510074518 47 160 0.0 2.0 0.00 0.00 0.00 64 1019.0
20260510073022 47 160 0.0 2.0 0.00 0.00 0.00 61 1019.0
20260510071506 49 160 0.0 2.0 0.00 0.00 0.00 60 1019.0
20260510070015 50 160 0.0 2.0 0.00 0.00 0.00 55 1019.0
20260510064528 51 154 1.0 2.0 0.00 0.00 0.00 58 1019.1
20260510063018 51 85 1.0 3.0 0.00 0.00 0.00 54 1019.2
20260510061524 51 117 0.0 2.0 0.00 0.00 0.00 52 1018.9
20260510060010 52 69 0.0 2.0 0.00 0.00 0.00 52 1019.0
20260510054512 54 69 0.0 2.0 0.00 0.00 0.00 50 1019.0
20260510053023 55 46 0.0 4.0 0.00 0.00 0.00 51 1019.0
20260510051522 55 324 0.0 0.0 0.00 0.00 0.00 47 1018.9
20260510050024 56 324 0.0 2.0 0.00 0.00 0.00 45 1018.9
20260510044516 57 324 0.0 2.0 0.00 0.00 0.00 44 1019.1
20260510043017 57 324 0.0 2.0 0.00 0.00 0.00 44 1019.0
20260510041520 57 324 0.0 2.0 0.00 0.00 0.00 45 1018.9
20260510040026 57 324 0.0 0.0 0.00 0.00 0.00 43 1018.8
20260510034528 58 324 0.0 2.0 0.00 0.00 0.00 43 1018.6
20260510033019 59 324 0.0 0.0 0.00 0.00 0.00 42 1018.4
20260510031517 61 324 0.0 0.0 0.00 0.00 0.00 39 1018.3
20260510030026 62 324 0.0 2.0 0.00 0.00 0.00 39 1018.2
20260510024527 64 324 0.0 0.0 0.00 0.00 0.00 37 1018.0
20260510023009 64 324 0.0 0.0 0.00 0.00 0.00 36 1017.9
20260510021518 65 324 0.0 2.0 0.00 0.00 0.00 35 1017.9
20260510020004 66 324 0.0 3.0 0.00 0.00 0.00 35 1017.8
20260510014507 67 32 0.0 3.0 0.00 0.00 0.00 34 1017.7
20260510013008 66 325 1.0 2.0 0.00 0.00 0.00 35 1017.7
20260510011511 66 262 0.0 3.0 0.00 0.00 0.00 36 1017.8
20260510010011 66 243 3.0 5.0 0.00 0.00 0.00 35 1017.8
20260510004503 66 265 6.0 7.0 0.00 0.00 0.00 35 1017.8
20260510003007 67 260 2.0 4.0 0.00 0.00 0.00 35 1017.7
20260510001514 66 283 2.0 7.0 0.00 0.00 0.00 36 1017.8
20260510000016 66 211 1.0 6.0 0.00 0.00 0.00 36 1017.8
20260509234515 66 247 2.0 6.0 0.00 0.00 0.00 37 1017.8
20260509233007 66 251 2.0 5.0 0.00 0.00 0.00 38 1017.8
20260509231516 66 231 1.0 6.0 0.00 0.00 0.00 37 1017.9
20260509230018 66 167 1.0 4.0 0.00 0.00 0.00 38 1018.0
20260509224530 65 204 0.0 5.0 0.00 0.00 0.00 39 1018.1
20260509223004 64 219 2.0 6.0 0.00 0.00 0.00 39 1018.2
20260509221510 64 169 1.0 5.0 0.00 0.00 0.00 39 1018.2
20260509220015 65 219 1.0 6.0 0.00 0.00 0.00 38 1018.3
20260509214518 66 252 3.0 7.0 0.00 0.00 0.00 37 1018.2
20260509213020 68 290 3.0 7.0 0.00 0.00 0.00 35 1018.3
20260509211509 66 229 3.0 7.0 0.00 0.00 0.00 38 1018.5
20260509210012 65 146 2.0 7.0 0.00 0.00 0.00 39 1018.6
20260509204520 65 200 3.0 8.0 0.00 0.00 0.00 39 1018.7
20260509203026 66 179 0.0 3.0 0.00 0.00 0.00 38 1018.6
20260509201524 65 242 2.0 11.0 0.00 0.00 0.00 38 1018.6
20260509200014 64 155 1.0 6.0 0.00 0.00 0.00 39 1018.5
20260509194521 64 176 2.0 6.0 0.00 0.00 0.00 39 1018.6
20260509193024 63 237 1.0 5.0 0.00 0.00 0.00 40 1018.7
20260509191525 62 79 0.0 4.0 0.00 0.00 0.00 41 1018.8
20260509190024 61 270 3.0 5.0 0.00 0.00 0.00 42 1019.0
20260509184523 61 316 0.0 3.0 0.00 0.00 0.00 42 1018.9
20260509183022 60 332 0.0 3.0 0.00 0.00 0.00 43 1019.0
20260509181523 60 17 0.0 3.0 0.00 0.00 0.00 44 1018.8
20260509180030 60 322 0.0 3.0 0.00 0.00 0.00 44 1018.8
20260509174514 60 2 1.0 4.0 0.00 0.00 0.00 44 1018.7
20260509173020 60 8 1.0 5.0 0.00 0.00 0.00 45 1018.6
20260509171504 60 290 2.0 3.0 0.00 0.00 0.00 45 1018.5
20260509170006 60 3 2.0 5.0 0.00 0.00 0.00 43 1018.4
20260509164511 61 186 1.0 6.0 0.00 0.00 0.00 41 1018.3
20260509163023 61 301 2.0 6.0 0.00 0.00 0.00 43 1018.2
20260509161504 60 251 3.0 6.0 0.00 0.00 0.00 46 1018.1
20260509160007 60 272 2.0 5.0 0.00 0.00 0.00 49 1018.0
20260509154516 60 347 1.0 7.0 0.00 0.00 0.00 49 1017.9
20260509153020 59 262 2.0 5.0 0.00 0.00 0.00 50 1017.8
20260509151519 59 328 2.0 5.0 0.00 0.00 0.00 53 1017.7
20260509150005 58 271 2.0 5.0 0.00 0.00 0.00 54 1017.6
20260509144514 57 331 2.0 5.0 0.00 0.00 0.00 53 1017.4
20260509143019 57 283 3.0 9.0 0.00 0.00 0.00 55 1017.3
20260509141536 56 287 5.0 9.0 0.00 0.00 0.00 59 1017.3
20260509140026 55 266 4.0 8.0 0.00 0.00 0.00 62 1017.1
20260509134523 54 269 4.0 7.0 0.00 0.00 0.00 61 1017.0
20260509133010 54 256 3.0 6.0 0.00 0.00 0.00 63 1016.8
20260509131526 53 240 3.0 5.0 0.00 0.00 0.00 64 1016.7